{"data":{"norad_id":51850,"intl_designator":"2022-021A","name":"GOES 18","alt_names":[],"object_type":"PAYLOAD","status":"ACTIVE","operator":null,"country":"US","launch_date":"2022-03-01","launch_site_code":"AFETR","launch_vehicle":null,"mission":null,"orbit_class":"UNKNOWN","rcs_meters":null,"size_class":null,"mass_kg":null,"dimensions":null,"purposes":["comms","earth_obs"],"wikipedia_slug":null,"has_3d_model":false,"image_url":null,"decayed_at":null,"tle_current":{"epoch":"2026-05-24T23:40:13.162080Z","epoch_age_seconds":77009,"freshness":"FRESH","line1":"1 51850U 22021A   26144.98626345  .00000094  00000+0  00000+0 0  9997","line2":"2 51850   0.0006  84.9505 0000498  23.6237 352.0570  1.00272890  6368","mean_motion":1.0027289,"eccentricity":4.98e-5,"inclination_deg":0.0006,"raan_deg":84.9505,"arg_perigee_deg":23.6237,"mean_anomaly_deg":352.057,"bstar":0,"rev_number":636,"period_min":1436.0810783453,"perigee_km":35784.185404198,"apogee_km":35788.384980648,"semimajor_km":42164.422192423,"source":"CELESTRAK","updated_at":"2026-05-25T13:38:14.106814Z"}}}